This demonstration page uses our WeatherBlox Daily Observations layout. Learn more.

Left ArrowRight Arrow

38.83388, -104.82136

Hourly Observations for August 11, 2022

Temp ( °F °C ) Dew Point ( °F °C ) Humidity (%) Winds ( mph kmh ) Pressure ( in mb ) Visibility ( mi km ) Precip ( " mm )
12:54 am 00:54 Mostly Clear 67 19.4 54 12.2 63 63 SE 5 7 30.16 1021 10 16 0.00 0.00
1:54 am 01:54 Clear 65 18.3 54 12.2 68 68 E 5 7 30.14 1021 10 16 0.00 0.00
2:54 am 02:54 Clear 64 17.8 54 12.2 70 70 E 7 11 30.13 1020 10 16 0.00 0.00
3:54 am 03:54 Clear 60 15.6 54 12.2 80 80 N 7 11 30.13 1020 10 16 0.00 0.00
4:54 am 04:54 Clear 61 16.1 54 12.2 78 78 N 5 7 30.11 1020 10 16 0.00 0.00
5:54 am 05:54 Mostly Clear 57 13.9 53 11.7 87 87 N 6 9 30.12 1020 10 16 0.00 0.00
6:54 am 06:54 Mostly Sunny 61 16.1 54 12.2 78 78 NNE 8 13 30.12 1020 10 16 0.00 0.00
7:54 am 07:54 Mostly Sunny 68 20 56 13.3 65 65 E 5 7 30.11 1020 10 16 0.00 0.00
8:54 am 08:54 Mostly Sunny 70 21.1 57 13.9 63 63 SE 7 11 30.12 1020 10 16 0.00 0.00
9:54 am 09:54 Mostly Sunny 74 23.3 57 13.9 56 56 SSE 7 11 30.11 1020 10 16 0.00 0.00
10:54 am 10:54 Mostly Sunny 78 25.6 56 13.3 47 47 SSE 12 19 30.09 1019 10 16 0.00 0.00
11:54 am 11:54 Mostly Sunny 82 27.8 52 11.1 35 35 SSE 14 22 30.07 1018 10 16 0.00 0.00
12:54 pm 12:54 Mostly Sunny 83 28.3 51 10.6 33 33 S 12 19 30.05 1018 10 16 0.00 0.00
1:54 pm 13:54 Partly Cloudy 85 29.4 50 10 30 30 S 12 19 30.04 1017 10 16 0.00 0.00
2:54 pm 14:54 Partly Cloudy 88 31.1 48 8.9 25 25 S 8 13 30.01 1016 10 16 0.00 0.00
3:54 pm 15:54 Partly Cloudy 88 31.1 47 8.3 24 24 SSE 6 9 30.00 1016 10 16 0.00 0.00
4:54 pm 16:54 Partly Cloudy 88 31.1 44 6.7 22 22 ESE 7 11 29.98 1015 10 16 0.00 0.00
5:54 pm 17:54 Partly Cloudy 88 31.1 42 5.6 20 20 SE 13 20 29.98 1015 10 16 0.00 0.00
6:54 pm 18:54 Partly Cloudy 83 28.3 42 5.6 24 24 SE 9 15 29.99 1016 10 16 0.00 0.00
7:54 pm 19:54 Mostly Cloudy 79 26.1 44 6.7 29 29 E 10 17 30.00 1016 10 16 0.00 0.00
8:54 pm 20:54 Mostly Cloudy 75 23.9 45 7.2 34 34 E 9 15 30.02 1017 10 16 0.00 0.00
9:54 pm 21:54 Mostly Cloudy 74 23.3 48 8.9 40 40 ESE 3 6 30.04 1017 10 16 0.00 0.00
10:54 pm 22:54 Mostly Cloudy 71 21.7 47 8.3 42 42 VRB 3 6 30.04 1017 10 16 0.00 0.00
11:54 pm 23:54 Mostly Cloudy 71 21.7 47 8.3 42 42 SE 6 9 30.03 1017 10 16 0.00 0.00

Powered by AerisWeather